contact:dominique.lefevre@mio.osupytheas.fr, maurice.libes@osupytheas.fr, didier.mallarino@osupytheas.fr
Project:EMSO http://www.emso-fr.org/EMSO-France
Depth: 2436.0 m
Title:EMSO Ligure Ouest : Data MII capteur MICROCAT
DateTime_Computer,Latitude,Longitude,Temperature,Conductivity,Pressure,DateTime_Instrument
DateTime_Computer,Latitude,Longitude,degC,S m-1,dbar,DateTime_Instrument
2020-05-09T00:02:36Z,42.805,6.029,13.2972,4.59981,2470.053,2020-5-09T02:03:18Z
2020-05-09T00:05:40Z,42.805,6.029,13.2981,4.59989,2470.087,2020-5-09T02:06:21Z
2020-05-09T00:08:43Z,42.805,6.029,13.2972,4.59983,2470.1,2020-5-09T02:09:24Z
2020-05-09T00:11:46Z,42.805,6.029,13.2976,4.59984,2470.04,2020-5-09T02:12:27Z
2020-05-09T00:14:49Z,42.805,6.029,13.2976,4.59991,2470.017,2020-5-09T02:15:31Z
2020-05-09T00:17:52Z,42.805,6.029,13.2974,4.59983,2470.04,2020-5-09T02:18:34Z
2020-05-09T00:20:56Z,42.805,6.029,13.2973,4.59993,2470.04,2020-5-09T02:21:37Z
2020-05-09T00:23:59Z,42.805,6.029,13.2977,4.59986,2470.04,2020-5-09T02:24:40Z
2020-05-09T00:27:02Z,42.805,6.029,13.2974,4.60002,2470.053,2020-5-09T02:27:44Z
2020-05-09T00:30:05Z,42.805,6.029,13.2979,4.60002,2470.063,2020-5-09T02:30:47Z
2020-05-09T00:33:09Z,42.805,6.029,13.2976,4.59988,2470.04,2020-5-09T02:33:50Z
2020-05-09T00:36:12Z,42.805,6.029,13.2978,4.59991,2470.063,2020-5-09T02:36:53Z
2020-05-09T00:39:15Z,42.805,6.029,13.2976,4.59984,2470.063,2020-5-09T02:39:56Z
2020-05-09T00:42:18Z,42.805,6.029,13.2976,4.59982,2469.993,2020-5-09T02:43:00Z
2020-05-09T00:45:21Z,42.805,6.029,13.2984,4.60004,2470.077,2020-5-09T02:46:03Z
2020-05-09T00:48:25Z,42.805,6.029,13.2990,4.60001,2470.04,2020-5-09T02:49:06Z
2020-05-09T00:51:28Z,42.805,6.029,13.2981,4.60004,2470.017,2020-5-09T02:52:09Z
2020-05-09T00:54:31Z,42.805,6.029,13.2979,4.59982,2470.007,2020-5-09T02:55:12Z
2020-05-09T00:57:34Z,42.805,6.029,13.2976,4.59990,2470.04,2020-5-09T02:58:16Z
2020-05-09T01:00:38Z,42.805,6.029,13.2975,4.59985,2470.017,2020-5-09T03:01:19Z
2020-05-09T01:03:41Z,42.805,6.029,13.2972,4.59981,2470.017,2020-5-09T03:04:22Z
2020-05-09T01:06:44Z,42.805,6.029,13.2976,4.60002,2470.026,2020-5-09T03:07:25Z
2020-05-09T01:09:47Z,42.805,6.029,13.2974,4.59992,2469.993,2020-5-09T03:10:29Z
2020-05-09T01:12:51Z,42.805,6.029,13.2976,4.59986,2469.993,2020-5-09T03:13:32Z
2020-05-09T01:15:54Z,42.805,6.029,13.2975,4.59983,2470.017,2020-5-09T03:16:35Z
2020-05-09T01:18:57Z,42.805,6.029,13.2986,4.60004,2469.993,2020-5-09T03:19:39Z
2020-05-09T01:22:00Z,42.805,6.029,13.2982,4.60009,2469.993,2020-5-09T03:22:42Z
2020-05-09T01:25:04Z,42.805,6.029,13.2979,4.60007,2469.993,2020-5-09T03:25:45Z
2020-05-09T01:28:07Z,42.805,6.029,13.2981,4.59998,2470.007,2020-5-09T03:28:48Z
2020-05-09T01:31:10Z,42.805,6.029,13.2972,4.59998,2470.007,2020-5-09T03:31:52Z
2020-05-09T01:34:13Z,42.805,6.029,13.2977,4.59996,2470.007,2020-5-09T03:34:55Z
2020-05-09T01:37:17Z,42.805,6.029,13.2983,4.59992,2470.017,2020-5-09T03:37:58Z
2020-05-09T01:40:20Z,42.805,6.029,13.2983,4.59991,2469.984,2020-5-09T03:41:01Z
2020-05-09T01:43:23Z,42.805,6.029,13.2972,4.59986,2469.97,2020-5-09T03:44:04Z
2020-05-09T01:46:26Z,42.805,6.029,13.2980,4.59997,2469.947,2020-5-09T03:47:08Z
2020-05-09T01:49:29Z,42.805,6.029,13.2972,4.59988,2469.984,2020-5-09T03:50:11Z
2020-05-09T01:52:33Z,42.805,6.029,13.2976,4.59989,2469.993,2020-5-09T03:53:14Z
2020-05-09T01:55:36Z,42.805,6.029,13.2980,4.59996,2469.984,2020-5-09T03:56:17Z
2020-05-09T01:58:39Z,42.805,6.029,13.2983,4.59996,2469.97,2020-5-09T03:59:21Z
2020-05-09T02:01:42Z,42.805,6.029,13.2986,4.59999,2470.007,2020-5-09T04:02:24Z
2020-05-09T02:04:46Z,42.805,6.029,13.2977,4.59996,2469.984,2020-5-09T04:05:27Z
2020-05-09T02:07:49Z,42.805,6.029,13.2971,4.59982,2469.97,2020-5-09T04:08:30Z
2020-05-09T02:10:52Z,42.805,6.029,13.2976,4.59987,2469.947,2020-5-09T04:11:34Z
2020-05-09T02:13:56Z,42.805,6.029,13.2974,4.59986,2469.947,2020-5-09T04:14:37Z
2020-05-09T02:16:59Z,42.805,6.029,13.2978,4.59990,2469.993,2020-5-09T04:17:40Z
2020-05-09T02:20:02Z,42.805,6.029,13.2976,4.59991,2469.993,2020-5-09T04:20:44Z
2020-05-09T02:23:05Z,42.805,6.029,13.2974,4.59981,2469.97,2020-5-09T04:23:47Z
2020-05-09T02:26:09Z,42.805,6.029,13.2979,4.59986,2469.96,2020-5-09T04:26:50Z
2020-05-09T02:29:12Z,42.805,6.029,13.2982,4.59986,2469.947,2020-5-09T04:29:53Z
2020-05-09T02:32:15Z,42.805,6.029,13.2977,4.59986,2469.96,2020-5-09T04:32:56Z
2020-05-09T02:35:18Z,42.805,6.029,13.2976,4.59982,2469.947,2020-5-09T04:36:00Z
2020-05-09T02:38:22Z,42.805,6.029,13.2978,4.59987,2469.923,2020-5-09T04:39:03Z
2020-05-09T02:41:25Z,42.805,6.029,13.2969,4.59981,2469.984,2020-5-09T04:42:06Z
2020-05-09T02:44:28Z,42.805,6.029,13.2980,4.59999,2469.984,2020-5-09T04:45:10Z
2020-05-09T02:47:31Z,42.805,6.029,13.2978,4.59992,2469.937,2020-5-09T04:48:13Z
2020-05-09T02:50:35Z,42.805,6.029,13.2980,4.59996,2469.947,2020-5-09T04:51:16Z
2020-05-09T02:53:38Z,42.805,6.029,13.2974,4.60002,2469.984,2020-5-09T04:54:19Z
2020-05-09T02:56:41Z,42.805,6.029,13.2977,4.59994,2469.947,2020-5-09T04:57:22Z
2020-05-09T02:59:44Z,42.805,6.029,13.2979,4.59991,2469.97,2020-5-09T05:00:26Z
2020-05-09T03:02:48Z,42.805,6.029,13.2982,4.59994,2469.947,2020-5-09T05:03:29Z
2020-05-09T03:05:51Z,42.805,6.029,13.2971,4.59990,2469.96,2020-5-09T05:06:33Z
2020-05-09T03:08:54Z,42.805,6.029,13.2980,4.59999,2469.947,2020-5-09T05:09:36Z
2020-05-09T03:11:58Z,42.805,6.029,13.2972,4.59994,2469.947,2020-5-09T05:12:39Z
2020-05-09T03:15:01Z,42.805,6.029,13.2978,4.60025,2469.96,2020-5-09T05:15:43Z
2020-05-09T03:18:04Z,42.805,6.029,13.2986,4.60010,2469.947,2020-5-09T05:18:46Z
2020-05-09T03:21:07Z,42.805,6.029,13.2977,4.60016,2469.96,2020-5-09T05:21:49Z
2020-05-09T03:24:11Z,42.805,6.029,13.2984,4.59997,2469.923,2020-5-09T05:24:52Z
2020-05-09T03:27:14Z,42.805,6.029,13.2982,4.60002,2469.947,2020-5-09T05:27:55Z
2020-05-09T03:30:17Z,42.805,6.029,13.2981,4.60002,2469.923,2020-5-09T05:30:59Z
2020-05-09T03:33:20Z,42.805,6.029,13.2993,4.59999,2469.923,2020-5-09T05:34:02Z
2020-05-09T03:36:24Z,42.805,6.029,13.2974,4.59998,2469.947,2020-5-09T05:37:05Z
2020-05-09T03:39:27Z,42.805,6.029,13.2987,4.60006,2469.9,2020-5-09T05:40:08Z
2020-05-09T03:42:30Z,42.805,6.029,13.2972,4.59990,2469.947,2020-5-09T05:43:12Z
2020-05-09T03:45:33Z,42.805,6.029,13.2983,4.59994,2469.97,2020-5-09T05:46:15Z
2020-05-09T03:48:37Z,42.805,6.029,13.2989,4.59999,2469.984,2020-5-09T05:49:18Z
2020-05-09T03:51:40Z,42.805,6.029,13.3000,4.60003,2469.97,2020-5-09T05:52:21Z
2020-05-09T03:54:43Z,42.805,6.029,13.2986,4.60007,2470.007,2020-5-09T05:55:25Z
2020-05-09T03:57:47Z,42.805,6.029,13.2974,4.59996,2469.96,2020-5-09T05:58:28Z
2020-05-09T04:00:50Z,42.805,6.029,13.2977,4.59998,2469.97,2020-5-09T06:01:31Z
2020-05-09T04:03:53Z,42.805,6.029,13.2989,4.60008,2469.984,2020-5-09T06:04:35Z
2020-05-09T04:06:56Z,42.805,6.029,13.2976,4.59991,2469.984,2020-5-09T06:07:38Z
2020-05-09T04:09:59Z,42.805,6.029,13.2979,4.59998,2469.97,2020-5-09T06:10:41Z
2020-05-09T04:13:03Z,42.805,6.029,13.2973,4.59992,2469.947,2020-5-09T06:13:44Z
2020-05-09T04:16:06Z,42.805,6.029,13.2987,4.60006,2469.97,2020-5-09T06:16:47Z
2020-05-09T04:19:09Z,42.805,6.029,13.2994,4.60011,2469.993,2020-5-09T06:19:51Z
2020-05-09T04:22:13Z,42.805,6.029,13.2996,4.60019,2469.984,2020-5-09T06:22:54Z
2020-05-09T04:25:16Z,42.805,6.029,13.2998,4.60021,2469.97,2020-5-09T06:25:57Z
2020-05-09T04:28:19Z,42.805,6.029,13.3004,4.60017,2469.97,2020-5-09T06:29:00Z
2020-05-09T04:31:22Z,42.805,6.029,13.2997,4.60020,2470.007,2020-5-09T06:32:04Z
2020-05-09T04:34:25Z,42.805,6.029,13.3015,4.60016,2469.97,2020-5-09T06:35:07Z
2020-05-09T04:37:29Z,42.805,6.029,13.2998,4.60027,2469.97,2020-5-09T06:38:10Z
2020-05-09T04:40:32Z,42.805,6.029,13.2991,4.60031,2469.984,2020-5-09T06:41:13Z
2020-05-09T04:43:35Z,42.805,6.029,13.2996,4.60011,2469.993,2020-5-09T06:44:17Z
2020-05-09T04:46:38Z,42.805,6.029,13.2997,4.60014,2470.007,2020-5-09T06:47:20Z
2020-05-09T04:49:42Z,42.805,6.029,13.2974,4.60029,2469.993,2020-5-09T06:50:23Z
2020-05-09T04:52:45Z,42.805,6.029,13.2995,4.60033,2470.007,2020-5-09T06:53:26Z
2020-05-09T04:55:48Z,42.805,6.029,13.2995,4.60026,2470.03,2020-5-09T06:56:30Z
2020-05-09T04:58:51Z,42.805,6.029,13.2992,4.60020,2470.007,2020-5-09T06:59:33Z
2020-05-09T05:01:55Z,42.805,6.029,13.2999,4.60024,2469.984,2020-5-09T07:02:36Z
2020-05-09T05:04:58Z,42.805,6.029,13.3005,4.60010,2470.03,2020-5-09T07:05:40Z
2020-05-09T05:08:02Z,42.805,6.029,13.3017,4.60018,2470.03,2020-5-09T07:08:43Z
2020-05-09T05:11:05Z,42.805,6.029,13.2996,4.60046,2469.993,2020-5-09T07:11:46Z
2020-05-09T05:14:08Z,42.805,6.029,13.3004,4.60034,2470.03,2020-5-09T07:14:49Z
2020-05-09T05:17:11Z,42.805,6.029,13.3006,4.60036,2470.04,2020-5-09T07:17:53Z
2020-05-09T05:20:14Z,42.805,6.029,13.2984,4.60026,2470.03,2020-5-09T07:20:56Z
2020-05-09T05:23:18Z,42.805,6.029,13.2991,4.60026,2470.053,2020-5-09T07:23:59Z
2020-05-09T05:26:21Z,42.805,6.029,13.3009,4.60024,2470.03,2020-5-09T07:27:03Z
2020-05-09T05:29:24Z,42.805,6.029,13.2990,4.60026,2470.04,2020-5-09T07:30:06Z
2020-05-09T05:32:28Z,42.805,6.029,13.3003,4.60039,2470.017,2020-5-09T07:33:09Z
2020-05-09T05:35:31Z,42.805,6.029,13.2998,4.60041,2470.03,2020-5-09T07:36:12Z
2020-05-09T05:38:34Z,42.805,6.029,13.2978,4.60044,2470.04,2020-5-09T07:39:16Z
2020-05-09T05:41:37Z,42.805,6.029,13.2983,4.60018,2469.993,2020-5-09T07:42:19Z
2020-05-09T05:44:41Z,42.805,6.029,13.3004,4.60015,2470.03,2020-5-09T07:45:22Z
2020-05-09T05:47:44Z,42.805,6.029,13.2998,4.60049,2470.04,2020-5-09T07:48:25Z
2020-05-09T05:50:47Z,42.805,6.029,13.3006,4.60052,2470.1,2020-5-09T07:51:29Z
2020-05-09T05:53:50Z,42.805,6.029,13.3022,4.60054,2470.053,2020-5-09T07:54:32Z
2020-05-09T05:56:54Z,42.805,6.029,13.3016,4.60056,2470.063,2020-5-09T07:57:35Z
2020-05-09T05:59:57Z,42.805,6.029,13.3029,4.60069,2470.1,2020-5-09T08:00:38Z
2020-05-09T06:03:00Z,42.805,6.029,13.3008,4.60028,2470.063,2020-5-09T08:03:42Z
2020-05-09T06:06:03Z,42.805,6.029,13.3006,4.60057,2470.063,2020-5-09T08:06:45Z
2020-05-09T06:09:07Z,42.805,6.029,13.3015,4.60021,2470.1,2020-5-09T08:09:48Z
2020-05-09T06:12:10Z,42.805,6.029,13.3011,4.60036,2470.077,2020-5-09T08:12:51Z
2020-05-09T06:15:13Z,42.805,6.029,13.2999,4.60014,2470.077,2020-5-09T08:15:55Z
2020-05-09T06:18:16Z,42.805,6.029,13.3004,4.59994,2470.063,2020-5-09T08:18:58Z
2020-05-09T06:21:20Z,42.805,6.029,13.2993,4.60016,2470.087,2020-5-09T08:22:01Z
2020-05-09T06:24:23Z,42.805,6.029,13.3017,4.60016,2470.063,2020-5-09T08:25:04Z
2020-05-09T06:27:26Z,42.805,6.029,13.2987,4.60003,2470.087,2020-5-09T08:28:08Z
2020-05-09T06:30:29Z,42.805,6.029,13.3029,4.60014,2470.087,2020-5-09T08:31:11Z
2020-05-09T06:33:33Z,42.805,6.029,13.2988,4.60010,2470.087,2020-5-09T08:34:14Z
2020-05-09T06:36:36Z,42.805,6.029,13.3000,4.59993,2470.124,2020-5-09T08:37:17Z
2020-05-09T06:39:39Z,42.805,6.029,13.2984,4.59990,2470.124,2020-5-09T08:40:21Z
2020-05-09T06:42:42Z,42.805,6.029,13.2997,4.59998,2470.077,2020-5-09T08:43:24Z
2020-05-09T06:45:46Z,42.805,6.029,13.2997,4.60016,2470.087,2020-5-09T08:46:27Z
2020-05-09T06:48:49Z,42.805,6.029,13.3016,4.60008,2470.087,2020-5-09T08:49:30Z
2020-05-09T06:51:52Z,42.805,6.029,13.2994,4.59993,2470.124,2020-5-09T08:52:33Z
2020-05-09T06:54:55Z,42.805,6.029,13.2986,4.59996,2470.124,2020-5-09T08:55:37Z
2020-05-09T06:57:58Z,42.805,6.029,13.2985,4.60004,2470.124,2020-5-09T08:58:40Z
2020-05-09T07:01:02Z,42.805,6.029,13.2983,4.59988,2470.11,2020-5-09T09:01:43Z
2020-05-09T07:04:05Z,42.805,6.029,13.2993,4.60000,2470.133,2020-5-09T09:04:46Z
2020-05-09T07:07:08Z,42.805,6.029,13.3015,4.59985,2470.133,2020-5-09T09:07:49Z
2020-05-09T07:10:11Z,42.805,6.029,13.2999,4.59987,2470.11,2020-5-09T09:10:53Z
2020-05-09T07:13:15Z,42.805,6.029,13.2983,4.60018,2470.11,2020-5-09T09:13:56Z
2020-05-09T07:16:18Z,42.805,6.029,13.2998,4.60072,2470.124,2020-5-09T09:16:59Z
2020-05-09T07:19:21Z,42.805,6.029,13.3014,4.60011,2470.11,2020-5-09T09:20:03Z
2020-05-09T07:22:24Z,42.805,6.029,13.3021,4.60010,2470.11,2020-5-09T09:23:06Z
2020-05-09T07:25:28Z,42.805,6.029,13.3008,4.60019,2470.124,2020-5-09T09:26:09Z
2020-05-09T07:28:31Z,42.805,6.029,13.3033,4.60069,2470.124,2020-5-09T09:29:12Z
2020-05-09T07:31:34Z,42.805,6.029,13.3029,4.60012,2470.124,2020-5-09T09:32:16Z
2020-05-09T07:34:37Z,42.805,6.029,13.3039,4.60052,2470.147,2020-5-09T09:35:19Z
2020-05-09T07:37:41Z,42.805,6.029,13.3023,4.60019,2470.133,2020-5-09T09:38:22Z
2020-05-09T07:40:44Z,42.805,6.029,13.3022,4.60039,2470.147,2020-5-09T09:41:25Z
2020-05-09T07:43:47Z,42.805,6.029,13.3024,4.60039,2470.147,2020-5-09T09:44:29Z
2020-05-09T07:46:50Z,42.805,6.029,13.3035,4.60052,2470.147,2020-5-09T09:47:32Z
2020-05-09T07:49:54Z,42.805,6.029,13.2989,4.60023,2470.11,2020-5-09T09:50:35Z
2020-05-09T07:52:57Z,42.805,6.029,13.3005,4.60029,2470.133,2020-5-09T09:53:38Z
2020-05-09T07:56:00Z,42.805,6.029,13.2983,4.60057,2470.124,2020-5-09T09:56:42Z
2020-05-09T07:59:03Z,42.805,6.029,13.3019,4.60039,2470.147,2020-5-09T09:59:45Z
2020-05-09T08:02:07Z,42.805,6.029,13.3003,4.60056,2470.124,2020-5-09T10:02:48Z
2020-05-09T08:05:10Z,42.805,6.029,13.3006,4.60049,2470.133,2020-5-09T10:05:51Z
2020-05-09T08:08:13Z,42.805,6.029,13.3013,4.60026,2470.124,2020-5-09T10:08:55Z
2020-05-09T08:11:16Z,42.805,6.029,13.3021,4.60050,2470.124,2020-5-09T10:11:58Z
2020-05-09T08:14:20Z,42.805,6.029,13.2994,4.60066,2470.1,2020-5-09T10:15:01Z
2020-05-09T08:17:23Z,42.805,6.029,13.3004,4.60041,2470.124,2020-5-09T10:18:04Z
2020-05-09T08:20:26Z,42.805,6.029,13.2988,4.60029,2470.124,2020-5-09T10:21:08Z
2020-05-09T08:23:29Z,42.805,6.029,13.3030,4.60049,2470.147,2020-5-09T10:24:11Z
2020-05-09T08:26:33Z,42.805,6.029,13.3012,4.60044,2470.11,2020-5-09T10:27:14Z
2020-05-09T08:29:36Z,42.805,6.029,13.3000,4.60052,2470.133,2020-5-09T10:30:17Z
2020-05-09T08:32:39Z,42.805,6.029,13.3005,4.60031,2470.124,2020-5-09T10:33:21Z
2020-05-09T08:35:42Z,42.805,6.029,13.3007,4.60044,2470.133,2020-5-09T10:36:24Z
2020-05-09T08:38:46Z,42.805,6.029,13.3026,4.60052,2470.124,2020-5-09T10:39:27Z
2020-05-09T08:41:49Z,42.805,6.029,13.3015,4.60057,2470.133,2020-5-09T10:42:30Z
2020-05-09T08:44:52Z,42.805,6.029,13.3000,4.60060,2470.124,2020-5-09T10:45:34Z
2020-05-09T08:47:55Z,42.805,6.029,13.3000,4.60063,2470.11,2020-5-09T10:48:37Z
2020-05-09T08:50:59Z,42.805,6.029,13.3014,4.60086,2470.133,2020-5-09T10:51:40Z
2020-05-09T08:54:02Z,42.805,6.029,13.2986,4.60043,2470.087,2020-5-09T10:54:43Z
2020-05-09T08:57:05Z,42.805,6.029,13.3002,4.60048,2470.133,2020-5-09T10:57:47Z
2020-05-09T09:00:08Z,42.805,6.029,13.2998,4.60039,2470.087,2020-5-09T11:00:50Z
2020-05-09T09:03:12Z,42.805,6.029,13.2979,4.60046,2470.147,2020-5-09T11:03:53Z
2020-05-09T09:06:15Z,42.805,6.029,13.2988,4.60038,2470.124,2020-5-09T11:06:56Z
2020-05-09T09:09:18Z,42.805,6.029,13.2998,4.60027,2470.1,2020-5-09T11:10:00Z
2020-05-09T09:12:21Z,42.805,6.029,13.3006,4.60016,2470.087,2020-5-09T11:13:03Z
2020-05-09T09:15:25Z,42.805,6.029,13.2993,4.60042,2470.11,2020-5-09T11:16:06Z
2020-05-09T09:18:28Z,42.805,6.029,13.2998,4.60026,2470.11,2020-5-09T11:19:09Z
2020-05-09T09:21:31Z,42.805,6.029,13.3023,4.60029,2470.147,2020-5-09T11:22:13Z
2020-05-09T09:24:34Z,42.805,6.029,13.3011,4.60014,2470.11,2020-5-09T11:25:16Z
2020-05-09T09:27:38Z,42.805,6.029,13.3009,4.60022,2470.087,2020-5-09T11:28:19Z
2020-05-09T09:30:41Z,42.805,6.029,13.3000,4.60020,2470.087,2020-5-09T11:31:22Z
2020-05-09T09:33:44Z,42.805,6.029,13.3008,4.60022,2470.124,2020-5-09T11:34:26Z
2020-05-09T09:36:47Z,42.805,6.029,13.3000,4.60021,2470.124,2020-5-09T11:37:29Z
2020-05-09T09:39:51Z,42.805,6.029,13.3004,4.60033,2470.063,2020-5-09T11:40:32Z
2020-05-09T09:42:54Z,42.805,6.029,13.3004,4.60044,2470.077,2020-5-09T11:43:35Z
2020-05-09T09:45:57Z,42.805,6.029,13.2988,4.60021,2470.11,2020-5-09T11:46:39Z
2020-05-09T09:49:00Z,42.805,6.029,13.2982,4.60047,2470.1,2020-5-09T11:49:42Z
2020-05-09T09:52:04Z,42.805,6.029,13.3011,4.60029,2470.087,2020-5-09T11:52:45Z
2020-05-09T09:55:07Z,42.805,6.029,13.2996,4.60032,2470.017,2020-5-09T11:55:48Z
2020-05-09T09:58:10Z,42.805,6.029,13.2998,4.60041,2470.077,2020-5-09T11:58:51Z
2020-05-09T10:01:13Z,42.805,6.029,13.3001,4.60035,2470.1,2020-5-09T12:01:55Z
2020-05-09T10:04:16Z,42.805,6.029,13.2999,4.60037,2470.087,2020-5-09T12:04:58Z
2020-05-09T10:07:20Z,42.805,6.029,13.3015,4.60031,2470.077,2020-5-09T12:08:01Z
2020-05-09T10:10:23Z,42.805,6.029,13.3003,4.60037,2470.087,2020-5-09T12:11:05Z
2020-05-09T10:13:26Z,42.805,6.029,13.3004,4.60039,2470.1,2020-5-09T12:14:08Z
2020-05-09T10:16:30Z,42.805,6.029,13.3010,4.60040,2470.077,2020-5-09T12:17:11Z
2020-05-09T10:19:33Z,42.805,6.029,13.2982,4.60019,2470.087,2020-5-09T12:20:14Z
2020-05-09T10:22:36Z,42.805,6.029,13.2993,4.60035,2470.063,2020-5-09T12:23:18Z
2020-05-09T10:25:39Z,42.805,6.029,13.2993,4.60054,2470.063,2020-5-09T12:26:21Z
2020-05-09T10:28:43Z,42.805,6.029,13.2989,4.60014,2470.077,2020-5-09T12:29:24Z
2020-05-09T10:31:46Z,42.805,6.029,13.2976,4.59999,2470.053,2020-5-09T12:32:27Z
2020-05-09T10:34:49Z,42.805,6.029,13.2988,4.60004,2470.1,2020-5-09T12:35:31Z
2020-05-09T10:37:52Z,42.805,6.029,13.2987,4.60016,2470.04,2020-5-09T12:38:34Z
2020-05-09T10:40:56Z,42.805,6.029,13.2987,4.60017,2470.04,2020-5-09T12:41:37Z
2020-05-09T10:43:59Z,42.805,6.029,13.2993,4.60019,2470.1,2020-5-09T12:44:40Z
2020-05-09T10:47:02Z,42.805,6.029,13.2979,4.60032,2470.04,2020-5-09T12:47:44Z
2020-05-09T10:50:06Z,42.805,6.029,13.2990,4.60026,2470.053,2020-5-09T12:50:47Z
2020-05-09T10:53:09Z,42.805,6.029,13.2994,4.60014,2470.04,2020-5-09T12:53:50Z
2020-05-09T10:56:12Z,42.805,6.029,13.2998,4.60023,2470.053,2020-5-09T12:56:54Z
2020-05-09T10:59:15Z,42.805,6.029,13.2998,4.60016,2470.017,2020-5-09T12:59:57Z
2020-05-09T11:02:19Z,42.805,6.029,13.2986,4.60002,2470.04,2020-5-09T13:03:00Z
2020-05-09T11:05:22Z,42.805,6.029,13.2985,4.60000,2470.03,2020-5-09T13:06:03Z
2020-05-09T11:08:25Z,42.805,6.029,13.2981,4.60002,2470.063,2020-5-09T13:09:07Z
2020-05-09T11:11:29Z,42.805,6.029,13.2983,4.60021,2470.053,2020-5-09T13:12:10Z
2020-05-09T11:14:32Z,42.805,6.029,13.2989,4.60011,2470.017,2020-5-09T13:15:13Z
2020-05-09T11:17:35Z,42.805,6.029,13.2999,4.60026,2470.03,2020-5-09T13:18:16Z
2020-05-09T11:20:38Z,42.805,6.029,13.2985,4.60045,2470.053,2020-5-09T13:21:20Z
2020-05-09T11:23:42Z,42.805,6.029,13.2980,4.60004,2470.03,2020-5-09T13:24:23Z
2020-05-09T11:26:45Z,42.805,6.029,13.2981,4.60002,2470.017,2020-5-09T13:27:26Z
2020-05-09T11:29:48Z,42.805,6.029,13.2993,4.60011,2470.017,2020-5-09T13:30:29Z
2020-05-09T11:32:51Z,42.805,6.029,13.2976,4.59999,2470.04,2020-5-09T13:33:33Z
2020-05-09T11:35:54Z,42.805,6.029,13.2983,4.60029,2469.993,2020-5-09T13:36:36Z
2020-05-09T11:38:58Z,42.805,6.029,13.2991,4.60000,2470.017,2020-5-09T13:39:39Z
2020-05-09T11:42:01Z,42.805,6.029,13.2997,4.60039,2470.017,2020-5-09T13:42:42Z
2020-05-09T11:45:04Z,42.805,6.029,13.2979,4.60037,2469.97,2020-5-09T13:45:46Z
2020-05-09T11:48:07Z,42.805,6.029,13.2976,4.59999,2470.03,2020-5-09T13:48:49Z
2020-05-09T11:51:11Z,42.805,6.029,13.2982,4.59999,2469.97,2020-5-09T13:51:52Z
2020-05-09T11:54:14Z,42.805,6.029,13.2992,4.60014,2469.993,2020-5-09T13:54:55Z
2020-05-09T11:57:17Z,42.805,6.029,13.2983,4.60003,2470.017,2020-5-09T13:57:59Z
2020-05-09T12:00:20Z,42.805,6.029,13.2986,4.60017,2470.007,2020-5-09T14:01:02Z
2020-05-09T12:03:24Z,42.805,6.029,13.2982,4.59998,2469.984,2020-5-09T14:04:05Z
2020-05-09T12:06:27Z,42.805,6.029,13.2983,4.60003,2469.97,2020-5-09T14:07:08Z
2020-05-09T12:09:30Z,42.805,6.029,13.2976,4.60026,2469.97,2020-5-09T14:10:12Z
2020-05-09T12:12:33Z,42.805,6.029,13.2987,4.60029,2470.007,2020-5-09T14:13:15Z
2020-05-09T12:15:37Z,42.805,6.029,13.2990,4.60007,2469.984,2020-5-09T14:16:18Z
2020-05-09T12:18:40Z,42.805,6.029,13.2986,4.60020,2469.97,2020-5-09T14:19:21Z
2020-05-09T12:21:43Z,42.805,6.029,13.2993,4.60037,2470.04,2020-5-09T14:22:25Z
2020-05-09T12:24:46Z,42.805,6.029,13.2986,4.60003,2469.97,2020-5-09T14:25:28Z
2020-05-09T12:27:50Z,42.805,6.029,13.2983,4.60003,2469.96,2020-5-09T14:28:31Z
2020-05-09T12:30:53Z,42.805,6.029,13.2983,4.60006,2469.984,2020-5-09T14:31:34Z
2020-05-09T12:33:56Z,42.805,6.029,13.2993,4.59996,2469.993,2020-5-09T14:34:38Z
2020-05-09T12:36:59Z,42.805,6.029,13.2981,4.60009,2469.984,2020-5-09T14:37:41Z
2020-05-09T12:40:03Z,42.805,6.029,13.2980,4.60003,2469.97,2020-5-09T14:40:44Z
2020-05-09T12:43:06Z,42.805,6.029,13.2990,4.60036,2469.97,2020-5-09T14:43:47Z
2020-05-09T12:46:09Z,42.805,6.029,13.2983,4.60052,2469.984,2020-5-09T14:46:50Z
2020-05-09T12:49:12Z,42.805,6.029,13.2991,4.60029,2469.993,2020-5-09T14:49:54Z
2020-05-09T12:52:16Z,42.805,6.029,13.2980,4.59997,2469.993,2020-5-09T14:52:57Z
2020-05-09T12:55:19Z,42.805,6.029,13.2978,4.60019,2469.96,2020-5-09T14:56:00Z
2020-05-09T12:58:22Z,42.805,6.029,13.2996,4.60018,2469.947,2020-5-09T14:59:04Z
2020-05-09T13:01:25Z,42.805,6.029,13.2979,4.60009,2469.947,2020-5-09T15:02:07Z
2020-05-09T13:04:28Z,42.805,6.029,13.2978,4.60016,2469.984,2020-5-09T15:05:10Z
2020-05-09T13:07:32Z,42.805,6.029,13.2990,4.60003,2469.947,2020-5-09T15:08:13Z
2020-05-09T13:10:35Z,42.805,6.029,13.2984,4.59997,2469.96,2020-5-09T15:11:17Z
2020-05-09T13:13:38Z,42.805,6.029,13.2982,4.60006,2469.947,2020-5-09T15:14:20Z
2020-05-09T13:16:41Z,42.805,6.029,13.2987,4.60006,2469.923,2020-5-09T15:17:23Z
2020-05-09T13:19:45Z,42.805,6.029,13.2976,4.59999,2469.947,2020-5-09T15:20:26Z
2020-05-09T13:22:48Z,42.805,6.029,13.2986,4.59996,2469.937,2020-5-09T15:23:30Z
2020-05-09T13:25:51Z,42.805,6.029,13.2991,4.60001,2469.947,2020-5-09T15:26:33Z
2020-05-09T13:28:55Z,42.805,6.029,13.2990,4.60014,2469.923,2020-5-09T15:29:36Z
2020-05-09T13:31:58Z,42.805,6.029,13.2998,4.60016,2469.937,2020-5-09T15:32:39Z
2020-05-09T13:35:01Z,42.805,6.029,13.2976,4.60020,2469.947,2020-5-09T15:35:43Z
2020-05-09T13:38:04Z,42.805,6.029,13.2987,4.60019,2469.937,2020-5-09T15:38:46Z
2020-05-09T13:41:08Z,42.805,6.029,13.2998,4.60027,2469.9,2020-5-09T15:41:49Z
2020-05-09T13:44:11Z,42.805,6.029,13.2979,4.60024,2469.923,2020-5-09T15:44:52Z
2020-05-09T13:47:14Z,42.805,6.029,13.2986,4.60017,2469.923,2020-5-09T15:47:56Z
2020-05-09T13:50:17Z,42.805,6.029,13.2993,4.60005,2469.914,2020-5-09T15:50:59Z
2020-05-09T13:53:21Z,42.805,6.029,13.2992,4.60007,2469.947,2020-5-09T15:54:02Z
2020-05-09T13:56:24Z,42.805,6.029,13.2970,4.59996,2469.96,2020-5-09T15:57:05Z
2020-05-09T13:59:27Z,42.805,6.029,13.2991,4.59996,2469.914,2020-5-09T16:00:09Z
2020-05-09T14:02:30Z,42.805,6.029,13.2981,4.59999,2469.923,2020-5-09T16:03:12Z
2020-05-09T14:05:33Z,42.805,6.029,13.2981,4.60009,2469.937,2020-5-09T16:06:15Z
2020-05-09T14:08:37Z,42.805,6.029,13.2985,4.59995,2469.9,2020-5-09T16:09:18Z
2020-05-09T14:11:40Z,42.805,6.029,13.2983,4.59996,2469.923,2020-5-09T16:12:22Z
2020-05-09T14:14:43Z,42.805,6.029,13.2982,4.60001,2469.9,2020-5-09T16:15:25Z
2020-05-09T14:17:47Z,42.805,6.029,13.2996,4.60025,2469.923,2020-5-09T16:18:28Z
2020-05-09T14:20:50Z,42.805,6.029,13.2985,4.60015,2469.9,2020-5-09T16:21:31Z
2020-05-09T14:23:53Z,42.805,6.029,13.2981,4.60003,2469.9,2020-5-09T16:24:34Z
2020-05-09T14:26:56Z,42.805,6.029,13.2977,4.59999,2469.876,2020-5-09T16:27:38Z
2020-05-09T14:29:59Z,42.805,6.029,13.2979,4.60024,2469.914,2020-5-09T16:30:41Z
2020-05-09T14:33:03Z,42.805,6.029,13.2977,4.60014,2469.876,2020-5-09T16:33:44Z
2020-05-09T14:36:06Z,42.805,6.029,13.2985,4.60024,2469.914,2020-5-09T16:36:47Z
2020-05-09T14:39:09Z,42.805,6.029,13.2976,4.60009,2469.914,2020-5-09T16:39:51Z
2020-05-09T14:42:12Z,42.805,6.029,13.2984,4.60019,2469.923,2020-5-09T16:42:54Z
2020-05-09T14:45:16Z,42.805,6.029,13.3007,4.60021,2469.876,2020-5-09T16:45:57Z
2020-05-09T14:48:19Z,42.805,6.029,13.2980,4.60005,2469.914,2020-5-09T16:49:00Z
2020-05-09T14:51:22Z,42.805,6.029,13.2975,4.59999,2469.937,2020-5-09T16:52:04Z
2020-05-09T14:54:25Z,42.805,6.029,13.2982,4.59997,2469.923,2020-5-09T16:55:07Z
2020-05-09T14:57:29Z,42.805,6.029,13.2976,4.59994,2469.9,2020-5-09T16:58:10Z
2020-05-09T15:00:32Z,42.805,6.029,13.2982,4.59988,2469.96,2020-5-09T17:01:14Z
2020-05-09T15:03:35Z,42.805,6.029,13.2976,4.59992,2469.97,2020-5-09T17:04:17Z
2020-05-09T15:06:38Z,42.805,6.029,13.2983,4.59999,2469.923,2020-5-09T17:07:20Z
2020-05-09T15:09:42Z,42.805,6.029,13.2979,4.59991,2469.9,2020-5-09T17:10:23Z
2020-05-09T15:12:45Z,42.805,6.029,13.2986,4.60001,2469.937,2020-5-09T17:13:26Z
2020-05-09T15:15:48Z,42.805,6.029,13.2991,4.60025,2469.923,2020-5-09T17:16:30Z